| time (UTC) | temp F | wind direction | speed MPH | gust MPH | rain 1hr in | rain 24hr in | rain mn in | humidity % | barometer mb |
| 20260906141033 | 76 | 271 | 2.0 | 3.0 | 0.00 | 0.00 | 0.00 | 82 | 1016.9 |
| 20260906140104 | 76 | 280 | 3.0 | 6.0 | 0.00 | 0.00 | 0.00 | 81 | 1016.8 |
| 20260906135033 | 76 | 272 | 2.0 | 2.0 | 0.00 | 0.00 | 0.00 | 82 | 1016.9 |
| 20260906134033 | 76 | 280 | 1.0 | 2.0 | 0.00 | 0.00 | 0.00 | 83 | 1016.9 |
| 20260906133018 | 75 | 268 | 2.0 | 3.0 | 0.00 | 0.00 | 0.00 | 83 | 1017.0 |
| 20260906132048 | 76 | 263 | 2.0 | 3.0 | 0.00 | 0.00 | 0.00 | 84 | 1016.9 |
| 20260906131058 | 76 | 273 | 2.0 | 4.0 | 0.00 | 0.00 | 0.00 | 84 | 1017.0 |
| 20260906130058 | 76 | 267 | 2.0 | 4.0 | 0.00 | 0.00 | 0.00 | 83 | 1016.7 |
| 20260906125018 | 77 | 276 | 2.0 | 5.0 | 0.00 | 0.00 | 0.00 | 81 | 1016.4 |
| 20260906124059 | 76 | 294 | 1.0 | 3.0 | 0.00 | 0.00 | 0.00 | 82 | 1016.4 |
| 20260906123210 | 76 | 264 | 2.0 | 2.0 | 0.00 | 0.00 | 0.00 | 83 | 1016.4 |
| 20260906121547 | 76 | 273 | 2.0 | 4.0 | 0.00 | 0.00 | 0.00 | 84 | 1016.3 |
| 20260906120559 | 75 | 268 | 2.0 | 2.0 | 0.00 | 0.00 | 0.00 | 84 | 1016.3 |
| 20260906115534 | 75 | 285 | 1.0 | 2.0 | 0.00 | 0.00 | 0.00 | 83 | 1016.2 |
| 20260906114519 | 76 | 271 | 1.0 | 3.0 | 0.00 | 0.00 | 0.00 | 83 | 1016.0 |
| 20260906112600 | 76 | 275 | 2.0 | 3.0 | 0.00 | 0.00 | 0.00 | 83 | 1015.9 |
| 20260906111520 | 76 | 263 | 2.0 | 2.0 | 0.00 | 0.00 | 0.00 | 83 | 1015.8 |
| 20260906110520 | 76 | 269 | 2.0 | 3.0 | 0.00 | 0.00 | 0.00 | 83 | 1015.7 |
| 20260906105520 | 77 | 278 | 2.0 | 3.0 | 0.00 | 0.00 | 0.00 | 82 | 1015.6 |
| 20260906104520 | 77 | 271 | 2.0 | 2.0 | 0.00 | 0.00 | 0.00 | 82 | 1015.5 |
| 20260906103641 | 77 | 276 | 1.0 | 4.0 | 0.00 | 0.00 | 0.00 | 82 | 1015.5 |
| 20260906102600 | 78 | 269 | 2.0 | 3.0 | 0.00 | 0.00 | 0.00 | 82 | 1015.5 |
| 20260906101521 | 78 | 272 | 2.0 | 3.0 | 0.00 | 0.00 | 0.00 | 81 | 1015.4 |
| 20260906100520 | 78 | 264 | 2.0 | 3.0 | 0.00 | 0.00 | 0.00 | 81 | 1015.3 |
| 20260906094521 | 78 | 276 | 2.0 | 4.0 | 0.00 | 0.00 | 0.00 | 81 | 1015.2 |
| 20260906093521 | 79 | 278 | 2.0 | 3.0 | 0.00 | 0.00 | 0.00 | 80 | 1015.1 |
| 20260906092522 | 79 | 276 | 2.0 | 4.0 | 0.00 | 0.00 | 0.00 | 80 | 1015.0 |
| 20260906091521 | 80 | 271 | 2.0 | 3.0 | 0.00 | 0.00 | 0.00 | 79 | 1015.0 |
| 20260906090521 | 80 | 279 | 1.0 | 2.0 | 0.00 | 0.00 | 0.00 | 79 | 1015.0 |
| 20260906085521 | 80 | 282 | 2.0 | 4.0 | 0.00 | 0.00 | 0.00 | 78 | 1014.8 |
| 20260906084521 | 81 | 287 | 1.0 | 1.0 | 0.00 | 0.00 | 0.00 | 76 | 1014.8 |
| 20260906083138 | 81 | 274 | 1.0 | 2.0 | 0.00 | 0.00 | 0.00 | 76 | 1014.8 |
| 20260906082037 | 81 | 286 | 2.0 | 4.0 | 0.00 | 0.00 | 0.00 | 76 | 1014.7 |
| 20260906081022 | 82 | 281 | 1.0 | 2.0 | 0.00 | 0.00 | 0.00 | 77 | 1014.8 |
| 20260906075522 | 82 | 316 | 1.0 | 2.0 | 0.00 | 0.00 | 0.00 | 78 | 1014.7 |
| 20260906073038 | 83 | 271 | 1.0 | 2.0 | 0.00 | 0.00 | 0.00 | 75 | 1014.6 |
| 20260906072222 | 83 | 263 | 1.0 | 2.0 | 0.00 | 0.00 | 0.00 | 75 | 1014.6 |
| 20260906071051 | 0 | 271 | 1.0 | 1.0 | 0.00 | 0.00 | 0.00 | ||
| 20260906065051 | 84 | 268 | 1.0 | 2.0 | 0.00 | 0.00 | 0.00 | 76 | 1014.7 |
| 20260906062021 | 85 | 272 | 1.0 | 3.0 | 0.00 | 0.00 | 0.00 | 74 | 1014.7 |
| 20260906061020 | 85 | 275 | 1.0 | 3.0 | 0.00 | 0.00 | 0.00 | 74 | 1014.8 |
| 20260906060101 | 86 | 279 | 1.0 | 3.0 | 0.00 | 0.00 | 0.00 | 73 | 1014.8 |
| 20260906055018 | 86 | 277 | 1.0 | 3.0 | 0.00 | 0.00 | 0.00 | 72 | 1014.8 |
| 20260906054018 | 0 | 281 | 1.0 | 2.0 | 0.00 | 0.00 | 0.00 | ||
| 20260906053021 | 87 | 285 | 1.0 | 2.0 | 0.00 | 0.00 | 0.00 | 70 | 1014.6 |
| 20260906052021 | 87 | 277 | 1.0 | 3.0 | 0.00 | 0.00 | 0.00 | 70 | 1014.6 |
| 20260906051021 | 87 | 282 | 1.0 | 2.0 | 0.00 | 0.00 | 0.00 | 69 | 1014.5 |
| 20260906050019 | 88 | 283 | 1.0 | 2.0 | 0.00 | 0.00 | 0.00 | 69 | 1014.4 |
| 20260906045019 | 88 | 284 | 1.0 | 3.0 | 0.00 | 0.00 | 0.00 | 68 | 1014.4 |
| 20260906044019 | 88 | 286 | 1.0 | 3.0 | 0.00 | 0.00 | 0.00 | 68 | 1014.3 |
| 20260906043059 | 88 | 287 | 1.0 | 3.0 | 0.00 | 0.00 | 0.00 | 67 | 1014.3 |
| 20260906042022 | 88 | 288 | 1.0 | 3.0 | 0.00 | 0.00 | 0.00 | 66 | 1014.3 |
| 20260906041059 | 89 | 283 | 2.0 | 4.0 | 0.00 | 0.00 | 0.00 | 66 | 1014.1 |
| 20260906040019 | 89 | 288 | 1.0 | 3.0 | 0.00 | 0.00 | 0.00 | 65 | 1014.0 |
| 20260906035019 | 89 | 286 | 1.0 | 2.0 | 0.00 | 0.00 | 0.00 | 65 | 1014.0 |
| 20260906034019 | 89 | 293 | 1.0 | 2.0 | 0.00 | 0.00 | 0.00 | 63 | 1013.9 |
| 20260906032020 | 90 | 285 | 1.0 | 3.0 | 0.00 | 0.00 | 0.00 | 61 | 1013.7 |
| 20260906031100 | 90 | 289 | 1.0 | 3.0 | 0.00 | 0.00 | 0.00 | 60 | 1013.7 |
| 20260906030017 | 90 | 287 | 1.0 | 3.0 | 0.00 | 0.00 | 0.00 | 59 | 1013.6 |
| 20260906025020 | 90 | 288 | 1.0 | 3.0 | 0.00 | 0.00 | 0.00 | 58 | 1013.4 |
| 20260906024020 | 90 | 289 | 1.0 | 3.0 | 0.00 | 0.00 | 0.00 | 57 | 1013.3 |
| 20260906022017 | 91 | 290 | 1.0 | 2.0 | 0.00 | 0.00 | 0.00 | 54 | 1013.1 |
| 20260906021018 | 91 | 292 | 1.0 | 2.0 | 0.00 | 0.00 | 0.00 | 53 | 1013.0 |
| 20260906020020 | 91 | 289 | 1.0 | 2.0 | 0.00 | 0.00 | 0.00 | 53 | 1012.8 |
| 20260906015020 | 91 | 290 | 1.0 | 3.0 | 0.00 | 0.00 | 0.00 | 53 | 1012.7 |
| 20260906014019 | 91 | 291 | 1.0 | 3.0 | 0.00 | 0.00 | 0.00 | 54 | 1012.7 |
| 20260906005018 | 93 | 290 | 1.0 | 2.0 | 0.00 | 0.00 | 0.00 | 51 | 1012.1 |
| 20260906004018 | 93 | 290 | 1.0 | 2.0 | 0.00 | 0.00 | 0.00 | 50 | 1012.1 |
| 20260906003019 | 94 | 293 | 1.0 | 2.0 | 0.00 | 0.00 | 0.00 | 50 | 1012.1 |
| 20260906001059 | 95 | 295 | 2.0 | 4.0 | 0.00 | 0.00 | 0.00 | 48 | 1012.1 |
| 20260906000059 | 95 | 301 | 1.0 | 2.0 | 0.00 | 0.00 | 0.00 | 47 | 1012.1 |
| 20260905235019 | 96 | 297 | 1.0 | 3.0 | 0.00 | 0.00 | 0.00 | 45 | 1012.2 |
| 20260905234059 | 96 | 288 | 1.0 | 3.0 | 0.00 | 0.00 | 0.00 | 45 | 1012.1 |
| 20260905233019 | 97 | 285 | 2.0 | 3.0 | 0.00 | 0.00 | 0.00 | 44 | 1012.1 |
| 20260905232019 | 97 | 306 | 2.0 | 4.0 | 0.00 | 0.00 | 0.00 | 44 | 1012.1 |
| 20260905231020 | 98 | 298 | 1.0 | 2.0 | 0.00 | 0.00 | 0.00 | 43 | 1012.1 |
| 20260905230019 | 99 | 317 | 2.0 | 5.0 | 0.00 | 0.00 | 0.00 | 40 | 1012.0 |
| 20260905225020 | 99 | 289 | 2.0 | 5.0 | 0.00 | 0.00 | 0.00 | 40 | 1012.0 |
| 20260905224017 | 99 | 289 | 2.0 | 4.0 | 0.00 | 0.00 | 0.00 | 40 | 1011.9 |
| 20260905223103 | 100 | 280 | 2.0 | 4.0 | 0.00 | 0.00 | 0.00 | 40 | 1011.8 |
| 20260905222100 | 101 | 296 | 2.0 | 4.0 | 0.00 | 0.00 | 0.00 | 41 | 1011.9 |
| 20260905221020 | 101 | 299 | 1.0 | 3.0 | 0.00 | 0.00 | 0.00 | 40 | 1012.0 |
| 20260905220018 | 102 | 300 | 2.0 | 5.0 | 0.00 | 0.00 | 0.00 | 40 | 1012.0 |
| 20260905215017 | 102 | 279 | 2.0 | 5.0 | 0.00 | 0.00 | 0.00 | 39 | 1011.9 |
| 20260905214026 | 102 | 281 | 2.0 | 4.0 | 0.00 | 0.00 | 0.00 | 39 | 1011.8 |
| 20260905213024 | 101 | 300 | 2.0 | 5.0 | 0.00 | 0.00 | 0.00 | 40 | 1011.8 |
| 20260905212018 | 102 | 295 | 2.0 | 5.0 | 0.00 | 0.00 | 0.00 | 39 | 1011.9 |
| 20260905211018 | 102 | 277 | 2.0 | 5.0 | 0.00 | 0.00 | 0.00 | 38 | 1011.9 |
| 20260905210018 | 102 | 294 | 2.0 | 5.0 | 0.00 | 0.00 | 0.00 | 38 | 1012.0 |
| 20260905205058 | 102 | 306 | 2.0 | 3.0 | 0.00 | 0.00 | 0.00 | 37 | 1012.1 |
| 20260905192531 | 100 | 296 | 2.0 | 5.0 | 0.00 | 0.00 | 0.00 | 40 | 1013.0 |
| 20260905191531 | 100 | 269 | 3.0 | 4.0 | 0.00 | 0.00 | 0.00 | 40 | 1013.0 |
| 20260905190531 | 99 | 315 | 1.0 | 4.0 | 0.00 | 0.00 | 0.00 | 41 | 1013.1 |
| 20260905185531 | 99 | 300 | 2.0 | 4.0 | 0.00 | 0.00 | 0.00 | 41 | 1013.2 |
| 20260905184531 | 99 | 282 | 2.0 | 4.0 | 0.00 | 0.00 | 0.00 | 41 | 1013.4 |
| 20260905183531 | 99 | 284 | 3.0 | 4.0 | 0.00 | 0.00 | 0.00 | 41 | 1013.5 |
| 20260905182531 | 99 | 310 | 2.0 | 3.0 | 0.00 | 0.00 | 0.00 | 42 | 1013.6 |
| 20260905181520 | 99 | 290 | 2.0 | 6.0 | 0.00 | 0.00 | 0.00 | 44 | 1013.6 |
| 20260905180531 | 98 | 291 | 2.0 | 4.0 | 0.00 | 0.00 | 0.00 | 45 | 1013.7 |
| 20260905175517 | 98 | 291 | 2.0 | 4.0 | 0.00 | 0.00 | 0.00 | 46 | 1013.7 |
| 20260905174532 | 97 | 299 | 1.0 | 2.0 | 0.00 | 0.00 | 0.00 | 47 | 1013.7 |
| 20260905173520 | 97 | 275 | 2.0 | 5.0 | 0.00 | 0.00 | 0.00 | 47 | 1013.9 |
| 20260905172532 | 97 | 270 | 3.0 | 5.0 | 0.00 | 0.00 | 0.00 | 48 | 1014.0 |
| 20260905171532 | 96 | 314 | 2.0 | 2.0 | 0.00 | 0.00 | 0.00 | 48 | 1014.2 |
| 20260905170518 | 96 | 304 | 2.0 | 3.0 | 0.00 | 0.00 | 0.00 | 49 | 1014.3 |
| 20260905165517 | 95 | 301 | 2.0 | 4.0 | 0.00 | 0.00 | 0.00 | 50 | 1014.4 |
| 20260905164517 | 94 | 292 | 3.0 | 5.0 | 0.00 | 0.00 | 0.00 | 50 | 1014.5 |
| 20260905163532 | 94 | 280 | 2.0 | 4.0 | 0.00 | 0.00 | 0.00 | 51 | 1014.6 |
| 20260905162518 | 94 | 304 | 2.0 | 3.0 | 0.00 | 0.00 | 0.00 | 52 | 1014.7 |
| 20260905161518 | 93 | 290 | 2.0 | 3.0 | 0.00 | 0.00 | 0.00 | 53 | 1014.7 |
| 20260905160558 | 93 | 287 | 2.0 | 4.0 | 0.00 | 0.00 | 0.00 | 54 | 1014.7 |
| 20260905155518 | 92 | 281 | 2.0 | 3.0 | 0.00 | 0.00 | 0.00 | 55 | 1014.8 |
| 20260905154518 | 91 | 276 | 2.0 | 4.0 | 0.00 | 0.00 | 0.00 | 55 | 1014.8 |
| 20260905153559 | 91 | 270 | 2.0 | 4.0 | 0.00 | 0.00 | 0.00 | 56 | 1014.9 |
| 20260905152518 | 90 | 281 | 2.0 | 4.0 | 0.00 | 0.00 | 0.00 | 57 | 1014.9 |
| 20260905151558 | 89 | 285 | 2.0 | 3.0 | 0.00 | 0.00 | 0.00 | 58 | 1014.9 |
| 20260905150519 | 88 | 279 | 2.0 | 3.0 | 0.00 | 0.00 | 0.00 | 60 | 1014.9 |
| 20260905145559 | 88 | 286 | 2.0 | 3.0 | 0.00 | 0.00 | 0.00 | 62 | 1015.0 |
| 20260905144559 | 87 | 277 | 2.0 | 2.0 | 0.00 | 0.00 | 0.00 | 63 | 1014.9 |
| 20260905143519 | 87 | 279 | 2.0 | 3.0 | 0.00 | 0.00 | 0.00 | 63 | 1014.9 |
| 20260905142519 | 87 | 278 | 2.0 | 3.0 | 0.00 | 0.00 | 0.00 | 63 | 1014.9 |
| 20260905141559 | 87 | 292 | 1.0 | 2.0 | 0.00 | 0.00 | 0.00 | 64 | 1014.9 |